RBSP A (38752 NORAD) Tracking and Keplerian Element Data

This shows tracking and keplerian element data for the satellite.

Feedback or suggestion? Click here.




ElementValue
Catalog38752
NameRBSP A
Epoch Orbit6147
Epoch Day347.02979372
Epoch Year2018
RAAN300.8365
Inclination10.0326
Eccentricity0.6814645
Argument of Perigee266.0351
Mean Anonmoly20.2719
Mean Motion2.68153451
Decay Rate-1.9E-06
L11 38752U 12046A 18347.02979372 -.00000190 00000-0 -83877-3 0 9998
L22 38752 10.0326 300.8365 6814645 266.0351 20.2719 2.68153451 61475

Live tracking and technical data element details for RBSP A (NORAD 38752). RBSP A can be tracked NOW for your location showing map with azimuth and elevation plus other details from your city location.

Track the satellite on the map from your city or location and see movement details for azimuth, elevation, latitude, longitude, range, height, and movement on the map or in text.







IsCatalogInMostPopularTable: catalog: 38752, numindb: 79
Update: records affected: 1



GetName: 38752 RBSP A

Hit Count: updated at: Sat, 15 Dec 2018 13:27:37 GMT